START_TIME,STEP,MOV.,M29,t_acc.,H22,t_acc.,H26,t_acc.,H30,t_acc.
1979-03-07 09:00:29.640 ,7,1,0.,24.0,0.,24.0,0.,24.0,0.,24.0
1979-03-07 09:00:53.640 ,6,1,0.,24.0,0.,24.0,0.,24.0,0.,24.0
1979-03-07 09:01:17.640 ,5,1,0.,24.0,0.,24.0,0.,24.0,0.,24.0
1979-03-07 09:01:41.640 ,4,1,0.,24.0,0.,24.0,0.,24.0,0.,24.0
1979-03-07 09:02:05.640 ,3,1,0.,24.0,0.,24.0,0.,24.0,0.,24.0
1979-03-07 09:02:29.640 ,2,1,0.,24.0,0.,24.0,0.,24.0,0.,24.0
1979-03-07 09:02:53.640 ,1,1,0.,24.0,0.,24.0,0.,24.0,0.,24.0
1979-03-07 09:03:17.640 ,0,1,0.,24.0,0.,24.0,0.,24.0,0.,24.0
1979-03-07 09:03:41.640 ,0,1,0.,24.0,0.,24.0,0.,24.0,0.,24.0
1979-03-07 09:04:05.640 ,1,1,0.,24.0,0.,24.0,0.,24.0,0.,24.0
1979-03-07 09:04:29.640 ,2,1,0.,24.0,0.,24.0,0.,24.0,0.,24.0
1979-03-07 09:04:53.640 ,3,1,0.,24.0,0.,24.0,0.,24.0,0.,24.0
1979-03-07 09:05:17.640 ,4,1,0.,24.0,0.,24.0,0.,24.0,0.,24.0
1979-03-07 09:05:41.640 ,5,1,0.,24.0,0.,24.0,0.,24.0,0.,24.0
1979-03-07 09:06:05.640 ,6,1,0.,24.0,0.,24.0,0.,24.0,0.,24.0
1979-03-07 09:06:29.640 ,7,1,0.,24.0,0.,24.0,0.,24.0,0.,24.0
1979-03-07 09:06:53.640 ,7,1,0.,24.0,0.,24.0,0.,24.0,0.,24.0
1979-03-07 09:07:17.640 ,6,1,0.,24.0,0.,24.0,0.,24.0,0.,24.0
1979-03-07 09:07:41.640 ,5,1,0.,24.0,0.,24.0,0.,24.0,0.,24.0
1979-03-07 09:08:05.640 ,4,1,0.,24.0,0.,24.0,0.,24.0,0.,24.0
1979-03-07 09:08:29.640 ,3,1,0.,24.0,0.,24.0,0.,24.0,0.,24.0
1979-03-07 09:08:53.640 ,2,1,0.,24.0,0.,24.0,0.,24.0,0.,24.0
1979-03-07 09:09:17.640 ,1,1,0.,24.0,0.,24.0,0.,24.0,0.,24.0
1979-03-07 09:09:41.640 ,0,1,0.,24.0,0.,24.0,0.,24.0,0.,24.0
1979-03-07 09:10:05.640 ,0,1,0.,24.0,0.,24.0,0.,24.0,0.,24.0
1979-03-07 09:10:29.640 ,1,1,0.,24.0,0.,24.0,0.,24.0,0.,24.0
1979-03-07 09:10:53.640 ,2,1,0.,24.0,0.,24.0,0.,24.0,0.,24.0
1979-03-07 09:11:17.640 ,3,1,0.,24.0,0.,24.0,0.,24.0,0.,24.0
1979-03-07 09:11:41.640 ,4,1,0.,24.0,0.,24.0,0.,24.0,0.,24.0
1979-03-07 09:12:05.640 ,5,1,0.,24.0,0.,24.0,0.,24.0,0.,24.0
1979-03-07 09:12:29.640 ,6,1,0.,24.0,0.,24.0,0.,24.0,0.,24.0
1979-03-07 09:12:53.640 ,7,1,0.,24.0,0.,24.0,0.,24.0,0.,24.0
1979-03-07 09:13:17.640 ,7,1,0.,24.0,0.,24.0,0.,24.0,0.,24.0
1979-03-07 09:13:41.640 ,6,1,0.,24.0,0.,24.0,0.,24.0,0.,24.0
1979-03-07 09:14:05.640 ,5,1,0.,24.0,0.,24.0,0.,24.0,0.,24.0
1979-03-07 09:14:29.640 ,4,1,0.,24.0,0.,24.0,0.,24.0,0.,24.0
1979-03-07 09:14:53.640 ,3,1,0.,24.0,0.,24.0,0.,24.0,0.,24.0
1979-03-07 09:15:17.640 ,2,1,0.,24.0,0.,24.0,0.,24.0,0.,24.0
1979-03-07 09:15:41.640 ,1,1,0.,24.0,0.,24.0,0.,24.0,0.,24.0
1979-03-07 09:16:05.640 ,0,1,0.,24.0,0.,24.0,0.,24.0,0.,24.0
1979-03-07 09:16:29.640 ,0,1,0.,24.0,0.,24.0,0.,24.0,0.,24.0
1979-03-07 09:16:53.640 ,1,1,0.,24.0,0.,24.0,0.,24.0,0.,24.0
1979-03-07 09:17:17.640 ,2,1,0.,24.0,0.,24.0,0.,24.0,0.,24.0
1979-03-07 09:17:41.640 ,3,1,0.,24.0,0.,24.0,0.,24.0,0.,24.0
1979-03-07 09:18:05.640 ,4,1,0.,24.0,0.,24.0,0.,24.0,0.,24.0
1979-03-07 09:18:29.640 ,5,1,0.,24.0,0.,24.0,0.,24.0,0.,24.0
1979-03-07 09:18:53.640 ,6,1,0.,24.0,0.,24.0,0.,24.0,0.,24.0
1979-03-07 09:19:17.640 ,7,1,0.,24.0,0.,24.0,0.,24.0,0.,24.0
1979-03-07 09:19:41.640 ,7,1,0.,24.0,0.,24.0,0.,24.0,0.,24.0
1979-03-07 09:20:05.640 ,6,1,0.,24.0,0.,24.0,0.,24.0,0.,24.0
1979-03-07 09:20:29.640 ,5,1,0.,24.0,0.,24.0,0.,24.0,0.,24.0
1979-03-07 09:20:53.640 ,4,1,0.,24.0,0.,24.0,0.,24.0,0.,24.0
1979-03-07 09:21:17.640 ,3,1,0.,24.0,0.,24.0,0.,24.0,0.,24.0
1979-03-07 09:21:41.640 ,2,1,0.,24.0,0.,24.0,0.,24.0,0.,24.0
1979-03-07 09:22:05.640 ,1,1,0.,24.0,0.,24.0,0.,24.0,0.,24.0
1979-03-07 09:22:29.640 ,0,1,0.,24.0,0.,24.0,0.,24.0,0.,24.0
1979-03-07 09:22:53.640 ,0,1,0.,24.0,0.,24.0,0.,24.0,0.,24.0
1979-03-07 09:23:17.640 ,1,1,0.,24.0,0.,24.0,0.,24.0,0.,24.0
1979-03-07 09:23:41.640 ,2,1,0.,24.0,0.,24.0,0.,24.0,0.,24.0
1979-03-07 09:24:05.640 ,3,1,0.,24.0,0.,24.0,0.,24.0,0.,24.0
1979-03-07 09:24:29.640 ,4,1,0.,24.0,0.,24.0,0.,24.0,0.,24.0
1979-03-07 09:24:53.640 ,5,1,0.,24.0,0.,24.0,0.,24.0,0.,24.0
1979-03-07 09:25:17.640 ,6,1,0.,24.0,0.,24.0,0.,24.0,0.,24.0
1979-03-07 09:25:41.640 ,7,1,0.,24.0,0.,24.0,0.,24.0,0.,24.0
1979-03-07 09:26:05.640 ,7,1,0.,24.0,0.,24.0,0.,24.0,0.,24.0
1979-03-07 09:26:29.640 ,6,1,0.,24.0,0.,24.0,0.,24.0,0.,24.0
1979-03-07 09:26:53.640 ,5,1,0.,24.0,0.,24.0,0.,24.0,0.,24.0
1979-03-07 09:27:17.640 ,4,1,0.,24.0,0.,24.0,0.,24.0,0.,24.0
1979-03-07 09:27:41.640 ,3,1,0.,24.0,0.,24.0,0.,24.0,0.,24.0
1979-03-07 09:28:05.640 ,2,1,0.,24.0,0.,24.0,0.,24.0,0.,24.0
1979-03-07 09:28:29.640 ,1,1,0.,24.0,0.,24.0,0.,24.0,0.,24.0
1979-03-07 09:28:53.640 ,0,1,0.,24.0,0.,24.0,0.,24.0,0.,24.0
1979-03-07 09:29:17.640 ,0,1,0.,24.0,0.,24.0,0.,24.0,0.,24.0
1979-03-07 09:29:41.640 ,1,1,0.,24.0,0.,24.0,0.,24.0,0.,24.0
1979-03-07 09:30:05.640 ,2,1,0.,24.0,0.,24.0,0.,24.0,0.,24.0
1979-03-07 09:30:29.640 ,3,1,0.,24.0,0.,24.0,0.,24.0,0.,24.0
1979-03-07 09:30:53.640 ,4,1,0.,24.0,0.,24.0,0.,24.0,0.,24.0
1979-03-07 09:31:17.640 ,5,1,0.,24.0,0.,24.0,0.,24.0,0.,24.0
1979-03-07 09:31:41.640 ,6,1,0.,24.0,0.,24.0,0.,24.0,0.,24.0
1979-03-07 09:32:05.640 ,7,1,0.,24.0,0.,24.0,0.,24.0,0.,24.0
1979-03-07 09:32:29.640 ,7,1,0.,24.0,0.,24.0,0.,24.0,0.,24.0
1979-03-07 09:32:53.640 ,6,1,0.,24.0,0.,24.0,0.,24.0,0.,24.0
1979-03-07 09:33:17.640 ,5,1,0.,24.0,0.,24.0,0.,24.0,0.,24.0
1979-03-07 09:33:41.640 ,4,1,0.,24.0,0.,24.0,0.,24.0,0.,24.0
1979-03-07 09:34:05.640 ,3,1,0.,24.0,0.,24.0,0.,24.0,0.,24.0
1979-03-07 09:34:29.640 ,2,1,0.,24.0,0.,24.0,0.,24.0,0.,24.0
1979-03-07 09:34:53.640 ,1,1,0.,24.0,0.,24.0,0.,24.0,0.,24.0
1979-03-07 09:35:17.640 ,0,1,0.,24.0,0.,24.0,0.,24.0,0.,24.0
1979-03-07 09:35:41.640 ,0,1,0.,24.0,0.,24.0,0.,24.0,0.,24.0
1979-03-07 09:36:05.640 ,1,1,0.,24.0,0.,24.0,0.,24.0,0.,24.0
1979-03-07 09:36:29.640 ,2,1,0.,24.0,0.,24.0,0.,24.0,0.,24.0
1979-03-07 09:36:53.640 ,3,1,0.,24.0,0.,24.0,0.,24.0,0.,24.0
1979-03-07 09:37:17.640 ,4,1,0.,24.0,0.,24.0,0.,24.0,0.,24.0
1979-03-07 09:37:41.640 ,5,1,0.,24.0,0.,24.0,0.,24.0,0.,24.0
1979-03-07 09:38:05.640 ,6,1,0.,24.0,0.,24.0,0.,24.0,0.,24.0
1979-03-07 09:38:29.640 ,7,1,0.,24.0,0.,24.0,0.,24.0,0.,24.0
1979-03-07 09:38:53.640 ,7,1,0.,24.0,0.,24.0,0.,24.0,0.,24.0
1979-03-07 09:39:17.640 ,6,1,0.,24.0,0.,24.0,0.,24.0,0.,24.0
1979-03-07 09:39:41.640 ,5,1,0.,24.0,0.,24.0,0.,24.0,0.,24.0
1979-03-07 09:40:05.640 ,4,1,0.,24.0,0.,24.0,0.,24.0,0.,24.0
1979-03-07 09:40:29.640 ,3,1,0.,24.0,0.,24.0,0.,24.0,0.,24.0
1979-03-07 09:40:53.640 ,2,1,0.,24.0,0.,24.0,0.,24.0,0.,24.0
1979-03-07 09:41:17.640 ,1,1,0.,24.0,0.,24.0,0.,24.0,0.,24.0
1979-03-07 09:41:41.640 ,0,1,0.,24.0,0.,24.0,0.,24.0,0.,24.0
1979-03-07 09:42:05.640 ,0,1,0.,24.0,0.,24.0,0.,24.0,0.,24.0
1979-03-07 09:42:29.640 ,1,1,0.,24.0,0.,24.0,0.,24.0,0.,24.0
1979-03-07 09:42:53.640 ,2,1,0.,24.0,0.,24.0,0.,24.0,0.,24.0
1979-03-07 09:43:17.640 ,3,1,0.,24.0,0.,24.0,0.,24.0,0.,24.0
1979-03-07 09:43:41.640 ,4,1,0.,24.0,0.,24.0,0.,24.0,0.,24.0
1979-03-07 09:44:05.640 ,5,1,0.,24.0,0.,24.0,0.,24.0,0.,24.0
1979-03-07 09:44:29.640 ,6,1,0.,24.0,0.,24.0,0.,24.0,0.,24.0
1979-03-07 09:44:53.640 ,7,1,0.,24.0,0.,24.0,0.,24.0,0.,24.0
1979-03-07 09:45:17.640 ,7,1,0.,24.0,0.,24.0,0.,24.0,0.,24.0
1979-03-07 09:45:41.640 ,6,1,0.,24.0,0.,24.0,0.,24.0,0.,24.0
1979-03-07 09:46:05.640 ,5,1,0.,24.0,0.,24.0,0.,24.0,0.,24.0
1979-03-07 09:46:29.640 ,4,1,0.,24.0,0.,24.0,0.,24.0,0.,24.0
1979-03-07 09:46:53.640 ,3,1,0.,24.0,0.,24.0,0.,24.0,0.,24.0
1979-03-07 09:47:17.640 ,2,1,0.,24.0,0.,24.0,0.,24.0,0.,24.0
1979-03-07 09:47:41.640 ,1,1,0.,24.0,0.,24.0,0.,24.0,0.,24.0
1979-03-07 09:48:05.640 ,0,1,0.,24.0,0.,24.0,0.,24.0,0.,24.0
1979-03-07 09:48:29.640 ,0,1,0.,24.0,0.,24.0,0.,24.0,0.,24.0
1979-03-07 09:48:53.640 ,1,1,0.,24.0,0.,24.0,0.,24.0,0.,24.0
1979-03-07 09:49:17.640 ,2,1,0.,24.0,0.,24.0,0.,24.0,0.,24.0
1979-03-07 09:49:41.640 ,3,1,0.,24.0,0.,24.0,0.,24.0,0.,24.0
1979-03-07 09:50:05.640 ,4,1,0.,24.0,0.,24.0,0.,24.0,0.,24.0
1979-03-07 09:50:29.640 ,5,1,0.,24.0,0.,24.0,0.,24.0,0.,24.0
1979-03-07 09:50:53.640 ,6,1,0.,24.0,0.,24.0,0.,24.0,0.,24.0
1979-03-07 09:51:17.640 ,7,1,0.,24.0,0.,24.0,0.,24.0,0.,24.0
1979-03-07 09:51:41.640 ,7,1,0.,24.0,0.,24.0,0.,24.0,0.,24.0
1979-03-07 09:52:05.640 ,6,1,0.,24.0,0.,24.0,0.,24.0,0.,24.0
1979-03-07 09:52:29.640 ,5,1,0.,24.0,0.,24.0,0.,24.0,0.,24.0
1979-03-07 09:52:53.640 ,4,1,0.,24.0,0.,24.0,0.,24.0,0.,24.0
1979-03-07 09:53:17.640 ,3,1,0.,24.0,0.,24.0,0.,24.0,0.,24.0
1979-03-07 09:53:41.640 ,2,1,0.,24.0,0.,24.0,0.,24.0,0.,24.0
1979-03-07 09:54:05.640 ,1,1,0.,24.0,0.,24.0,0.,24.0,0.,24.0
1979-03-07 09:54:29.640 ,0,1,0.,24.0,0.,24.0,0.,24.0,0.,24.0
1979-03-07 09:54:53.640 ,0,1,0.,24.0,0.,24.0,0.,24.0,0.,24.0
1979-03-07 09:55:17.640 ,1,1,0.,24.0,0.,24.0,0.,24.0,0.,24.0
1979-03-07 09:55:41.640 ,2,1,0.,24.0,0.,24.0,0.,24.0,0.,24.0
1979-03-07 09:56:05.640 ,3,1,0.,24.0,0.,24.0,0.,24.0,0.,24.0
1979-03-07 09:56:29.640 ,4,1,0.,24.0,0.,24.0,0.,24.0,0.,24.0
1979-03-07 09:56:53.640 ,5,1,0.,24.0,0.,24.0,0.,24.0,0.,24.0
1979-03-07 09:57:17.640 ,6,1,0.,24.0,0.,24.0,0.,24.0,0.,24.0
1979-03-07 09:57:41.640 ,7,1,0.,24.0,0.,24.0,0.,24.0,0.,24.0
1979-03-07 09:58:05.640 ,7,1,0.,24.0,0.,24.0,0.,24.0,0.,24.0
1979-03-07 09:58:29.640 ,0,0,0.,24.0,0.,24.0,0.,24.0,0.,24.0
1979-03-07 09:58:53.640 ,0,0,0.,24.0,0.,24.0,0.,24.0,0.,24.0
1979-03-07 09:59:17.640 ,0,0,0.,24.0,0.,24.0,0.,24.0,0.,24.0
1979-03-07 09:59:41.640 ,3,1,0.,24.0,0.,24.0,0.,24.0,0.,24.0
1979-03-07 10:00:05.640 ,2,1,0.,24.0,0.,24.0,0.,24.0,0.,24.0
1979-03-07 10:00:29.640 ,1,1,0.,24.0,0.,24.0,0.,24.0,0.,24.0
1979-03-07 10:00:53.640 ,0,1,0.,24.0,0.,24.0,0.,24.0,0.,24.0
1979-03-07 10:01:17.640 ,0,1,0.,24.0,0.,24.0,0.,24.0,0.,24.0
1979-03-07 10:01:41.640 ,1,1,0.,24.0,0.,24.0,0.,24.0,0.,24.0
1979-03-07 10:02:05.640 ,2,1,0.,24.0,0.,24.0,0.,24.0,0.,24.0
1979-03-07 10:02:29.640 ,3,1,0.,24.0,0.,24.0,0.,24.0,0.,24.0
1979-03-07 10:02:53.640 ,4,1,0.,24.0,0.,24.0,0.,24.0,0.,24.0
1979-03-07 10:03:17.640 ,5,1,0.,24.0,0.,24.0,0.,24.0,0.,24.0
1979-03-07 10:03:41.640 ,6,1,0.,24.0,0.,24.0,0.,24.0,0.,24.0
1979-03-07 10:04:05.640 ,7,1,0.,24.0,0.,24.0,0.,24.0,0.,24.0
1979-03-07 10:04:29.640 ,7,1,0.,24.0,0.,24.0,0.,24.0,0.,24.0
1979-03-07 10:04:53.640 ,6,1,0.,24.0,0.,24.0,0.,24.0,0.,24.0
1979-03-07 10:05:17.640 ,5,1,0.,24.0,0.,24.0,0.,24.0,0.,24.0
1979-03-07 10:05:41.640 ,4,1,0.,24.0,0.,24.0,0.,24.0,0.,24.0
1979-03-07 10:06:05.640 ,3,1,0.,24.0,0.,24.0,0.,24.0,0.,24.0
1979-03-07 10:06:29.640 ,2,1,0.,24.0,0.,24.0,0.,24.0,0.,24.0
1979-03-07 10:06:53.640 ,1,1,0.,24.0,0.,24.0,0.,24.0,0.,24.0
1979-03-07 10:07:17.640 ,0,1,0.,24.0,0.,24.0,0.,24.0,0.,24.0
1979-03-07 10:07:41.640 ,0,1,0.,24.0,0.,24.0,0.,24.0,0.,24.0
1979-03-07 10:08:05.640 ,1,1,0.,24.0,0.,24.0,0.,24.0,0.,24.0
1979-03-07 10:08:29.640 ,2,1,0.,24.0,0.,24.0,0.,24.0,0.,24.0
1979-03-07 10:08:53.650 ,3,1,0.,24.0,0.,24.0,0.,24.0,0.,24.0
1979-03-07 10:09:17.650 ,4,1,0.,24.0,0.,24.0,0.,24.0,0.,24.0
1979-03-07 10:09:41.650 ,5,1,0.,24.0,0.,24.0,0.,24.0,0.,24.0
1979-03-07 10:10:05.650 ,6,1,0.,24.0,0.,24.0,0.,24.0,0.,24.0
1979-03-07 10:10:29.650 ,7,1,0.,24.0,0.,24.0,0.,24.0,0.,24.0
1979-03-07 10:10:53.650 ,7,1,0.,24.0,0.,24.0,0.,24.0,0.,24.0
1979-03-07 10:11:17.650 ,6,1,0.,24.0,0.,24.0,0.,24.0,0.,24.0
1979-03-07 10:11:41.650 ,5,1,0.,24.0,0.,24.0,0.,24.0,0.,24.0
1979-03-07 10:12:05.650 ,4,1,0.,24.0,0.,24.0,0.,24.0,0.,24.0
1979-03-07 10:12:29.650 ,3,1,0.,24.0,0.,24.0,0.,24.0,0.,24.0
1979-03-07 10:12:53.650 ,2,1,0.,24.0,0.,24.0,0.,24.0,0.,24.0
1979-03-07 10:13:17.650 ,1,1,0.,24.0,0.,24.0,0.,24.0,0.,24.0
1979-03-07 10:13:41.650 ,0,1,0.,24.0,0.,24.0,0.,24.0,0.,24.0
1979-03-07 10:14:05.650 ,0,1,0.,24.0,0.,24.0,0.,24.0,0.,24.0
1979-03-07 10:14:29.650 ,1,1,0.,24.0,0.,24.0,0.,24.0,0.,24.0
1979-03-07 10:14:53.650 ,2,1,0.,24.0,0.,24.0,0.,24.0,0.,24.0
1979-03-07 10:15:17.650 ,3,1,0.,24.0,0.,24.0,0.,24.0,0.,24.0
1979-03-07 10:15:41.650 ,4,1,0.,24.0,0.,24.0,0.,24.0,0.,24.0
1979-03-07 10:16:05.650 ,5,1,0.,24.0,0.,24.0,0.,24.0,0.,24.0
1979-03-07 10:16:29.650 ,6,1,0.,24.0,0.,24.0,0.,24.0,0.,24.0
1979-03-07 10:16:53.650 ,7,1,0.,24.0,0.,24.0,0.,24.0,0.,24.0
1979-03-07 10:17:17.650 ,7,1,0.,24.0,0.,24.0,0.,24.0,0.,24.0
1979-03-07 10:17:41.650 ,6,1,0.,24.0,0.,24.0,0.,24.0,0.,24.0
1979-03-07 10:18:05.650 ,5,1,0.,24.0,0.,24.0,0.,24.0,0.,24.0
1979-03-07 10:18:29.650 ,4,1,0.,24.0,0.,24.0,0.,24.0,0.,24.0
1979-03-07 10:18:53.650 ,3,1,0.,24.0,0.,24.0,0.,24.0,0.,24.0
1979-03-07 10:19:17.650 ,2,1,0.,24.0,0.,24.0,0.,24.0,0.,24.0
1979-03-07 10:19:41.650 ,1,1,0.,24.0,0.,24.0,0.,24.0,0.,24.0
1979-03-07 10:20:05.650 ,0,1,0.,24.0,0.,24.0,0.,24.0,0.,24.0
1979-03-07 10:20:29.650 ,0,1,0.,24.0,0.,24.0,0.,24.0,0.,24.0
1979-03-07 10:20:53.650 ,1,1,0.,24.0,0.,24.0,0.,24.0,0.,24.0
1979-03-07 10:21:17.650 ,2,1,0.,24.0,0.,24.0,0.,24.0,0.,24.0
1979-03-07 10:21:41.650 ,3,1,0.,24.0,0.,24.0,0.,24.0,0.,24.0
1979-03-07 10:22:05.650 ,4,1,0.,24.0,0.,24.0,0.,24.0,0.,24.0
1979-03-07 10:22:29.650 ,5,1,0.,24.0,0.,24.0,0.,24.0,0.,24.0
1979-03-07 10:22:53.650 ,6,1,0.,24.0,0.,24.0,0.,24.0,0.,24.0
1979-03-07 10:23:17.650 ,7,1,0.,24.0,0.,24.0,0.,24.0,0.,24.0
1979-03-07 10:23:41.650 ,7,1,0.,24.0,0.,24.0,0.,24.0,0.,24.0
1979-03-07 10:24:05.650 ,6,1,0.,24.0,0.,24.0,0.,24.0,0.,24.0
1979-03-07 10:24:29.650 ,5,1,0.,24.0,0.,24.0,0.,24.0,0.,24.0
1979-03-07 10:24:53.650 ,4,1,0.,24.0,0.,24.0,0.,24.0,0.,24.0
1979-03-07 10:25:17.650 ,3,1,0.,24.0,0.,24.0,0.,24.0,0.,24.0
1979-03-07 10:25:41.650 ,2,1,0.,24.0,0.,24.0,0.,24.0,0.,24.0
1979-03-07 10:26:05.650 ,1,1,0.,24.0,0.,24.0,0.,24.0,0.,24.0
1979-03-07 10:26:29.650 ,0,1,0.,24.0,0.,24.0,0.,24.0,0.,24.0
1979-03-07 10:26:53.650 ,0,1,0.,24.0,0.,24.0,0.,24.0,0.,24.0
1979-03-07 10:27:17.650 ,1,1,0.,24.0,0.,24.0,0.,24.0,0.,24.0
1979-03-07 10:27:41.650 ,2,1,0.,24.0,0.,24.0,0.,24.0,0.,24.0
1979-03-07 10:28:05.650 ,3,1,0.,24.0,0.,24.0,0.,24.0,0.,24.0
1979-03-07 10:28:29.650 ,4,1,0.,24.0,0.,24.0,0.,24.0,0.,24.0
1979-03-07 10:28:53.650 ,5,1,0.,24.0,0.,24.0,0.,24.0,0.,24.0
1979-03-07 10:29:17.650 ,6,1,0.,24.0,0.,24.0,0.,24.0,0.,24.0
1979-03-07 10:29:41.650 ,7,1,0.,24.0,0.,24.0,0.,24.0,0.,24.0
1979-03-07 10:30:05.650 ,7,1,0.,24.0,0.,24.0,0.,24.0,0.,24.0
1979-03-07 10:30:29.650 ,6,1,0.,24.0,0.,24.0,0.,24.0,0.,24.0
1979-03-07 10:30:53.650 ,5,1,0.,24.0,0.,24.0,0.,24.0,0.,24.0
1979-03-07 10:31:17.650 ,4,1,0.,24.0,0.,24.0,0.,24.0,0.,24.0
1979-03-07 10:31:41.650 ,3,1,0.,24.0,0.,24.0,0.,24.0,0.,24.0
1979-03-07 10:32:05.650 ,2,1,0.,24.0,0.,24.0,0.,24.0,0.,24.0
1979-03-07 10:32:29.650 ,1,1,0.,24.0,0.,24.0,0.,24.0,0.,24.0
1979-03-07 10:32:53.650 ,0,1,0.,24.0,0.,24.0,0.,24.0,0.,24.0
1979-03-07 10:33:17.650 ,0,1,0.,24.0,0.,24.0,0.,24.0,0.,24.0
1979-03-07 10:33:41.650 ,1,1,0.,24.0,0.,24.0,0.,24.0,0.,24.0
1979-03-07 10:34:05.650 ,2,1,0.,24.0,0.,24.0,0.,24.0,0.,24.0
1979-03-07 10:34:29.650 ,3,1,0.,24.0,0.,24.0,0.,24.0,0.,24.0
1979-03-07 10:34:53.650 ,4,1,0.,24.0,0.,24.0,0.,24.0,0.,24.0
1979-03-07 10:35:17.650 ,5,1,0.,24.0,0.,24.0,0.,24.0,0.,24.0
1979-03-07 10:35:41.650 ,6,1,0.,24.0,0.,24.0,0.,24.0,0.,24.0
1979-03-07 10:36:05.650 ,7,1,0.,24.0,0.,24.0,0.,24.0,0.,24.0
1979-03-07 10:36:29.650 ,7,1,0.,24.0,0.,24.0,0.,24.0,0.,24.0
1979-03-07 10:36:53.650 ,6,1,0.,24.0,0.,24.0,0.,24.0,0.,24.0
1979-03-07 10:37:17.650 ,5,1,0.,24.0,0.,24.0,0.,24.0,0.,24.0
1979-03-07 10:37:41.650 ,4,1,0.,24.0,0.,24.0,0.,24.0,0.,24.0
1979-03-07 10:38:05.650 ,3,1,0.,24.0,0.,24.0,0.,24.0,0.,24.0
1979-03-07 10:38:29.650 ,1,1,0.,24.0,0.,24.0,0.,24.0,0.,24.0
1979-03-07 10:38:53.650 ,1,1,0.,24.0,0.,24.0,0.,24.0,0.,24.0
1979-03-07 10:39:17.650 ,5,1,0.,24.0,0.,24.0,0.,24.0,0.,24.0
1979-03-07 10:39:41.650 ,6,1,0.,24.0,0.,24.0,0.,24.0,0.,24.0
1979-03-07 10:40:05.650 ,2,1,0.,24.0,0.,24.0,0.,24.0,0.,24.0
1979-03-07 10:40:29.650 ,1,1,0.,24.0,0.,24.0,0.,24.0,0.,24.0
1979-03-07 10:40:53.650 ,5,1,0.,24.0,0.,24.0,0.,24.0,0.,24.0
1979-03-07 10:41:17.650 ,6,1,0.,24.0,0.,24.0,0.,24.0,0.,24.0
1979-03-07 10:41:41.650 ,2,1,0.,24.0,0.,24.0,0.,24.0,0.,24.0
1979-03-07 10:42:05.650 ,1,1,0.,24.0,0.,24.0,0.,24.0,0.,24.0
1979-03-07 10:42:29.650 ,5,1,0.,24.0,0.,24.0,0.,24.0,0.,24.0
1979-03-07 10:42:53.650 ,6,1,0.,24.0,0.,24.0,0.,24.0,0.,24.0
1979-03-07 10:43:17.650 ,2,1,0.,24.0,0.,24.0,0.,24.0,0.,24.0
1979-03-07 10:43:41.650 ,1,1,0.,24.0,0.,24.0,0.,24.0,0.,24.0
1979-03-07 10:44:05.650 ,5,1,0.,24.0,0.,24.0,0.,24.0,0.,24.0
1979-03-07 10:44:29.650 ,6,1,0.,24.0,0.,24.0,0.,24.0,0.,24.0
1979-03-07 10:44:53.650 ,2,1,0.,24.0,0.,24.0,0.,24.0,0.,24.0
1979-03-07 10:45:17.650 ,1,1,0.,24.0,0.,24.0,0.,24.0,0.,24.0
1979-03-07 10:45:41.650 ,5,1,0.,24.0,0.,24.0,0.,24.0,0.,24.0
1979-03-07 10:46:05.650 ,6,1,0.,24.0,0.,24.0,0.,24.0,0.,24.0
1979-03-07 10:46:29.650 ,2,1,0.,24.0,0.,24.0,0.,24.0,0.,24.0
1979-03-07 10:46:53.650 ,1,1,0.,24.0,0.,24.0,0.,24.0,0.,24.0
1979-03-07 10:47:17.650 ,5,1,0.,24.0,0.,24.0,0.,24.0,0.,24.0
1979-03-07 10:47:41.650 ,6,1,0.,24.0,0.,24.0,0.,24.0,0.,24.0
1979-03-07 10:48:05.650 ,2,1,0.,24.0,0.,24.0,0.,24.0,0.,24.0
1979-03-07 10:48:29.650 ,1,1,0.,24.0,0.,24.0,0.,24.0,0.,24.0
1979-03-07 10:48:53.650 ,5,1,0.,24.0,0.,24.0,0.,24.0,0.,24.0
1979-03-07 10:49:17.650 ,6,1,0.,24.0,0.,24.0,0.,24.0,0.,24.0
1979-03-07 10:49:41.650 ,2,1,0.,24.0,0.,24.0,0.,24.0,0.,24.0
1979-03-07 10:50:05.650 ,1,1,0.,24.0,0.,24.0,0.,24.0,0.,24.0
1979-03-07 10:50:29.650 ,5,1,0.,24.0,0.,24.0,0.,24.0,0.,24.0
1979-03-07 10:50:53.650 ,6,1,0.,24.0,0.,24.0,0.,24.0,0.,24.0
1979-03-07 10:51:17.650 ,2,1,0.,24.0,0.,24.0,0.,24.0,0.,24.0
1979-03-07 10:51:41.650 ,1,1,0.,24.0,0.,24.0,0.,24.0,0.,24.0
1979-03-07 10:52:53.650 ,0,0,0.,24.0,0.,24.0,0.,24.0,0.,24.0
1979-03-07 10:53:17.650 ,1,1,0.,24.0,0.,24.0,0.,24.0,0.,24.0
1979-03-07 10:53:41.650 ,5,1,0.,24.0,0.,24.0,0.,24.0,0.,24.0
1979-03-07 10:54:05.650 ,6,1,0.,24.0,0.,24.0,0.,24.0,0.,24.0
1979-03-07 10:54:29.650 ,2,1,0.,24.0,0.,24.0,0.,24.0,0.,24.0
1979-03-07 10:54:53.650 ,1,1,0.,24.0,0.,24.0,0.,24.0,0.,24.0
1979-03-07 10:55:17.650 ,5,1,0.,24.0,0.,24.0,0.,24.0,0.,24.0
1979-03-07 10:55:41.650 ,6,1,0.,24.0,0.,24.0,0.,24.0,0.,24.0
1979-03-07 10:56:05.650 ,2,1,0.,24.0,0.,24.0,0.,24.0,0.,24.0
1979-03-07 10:56:29.650 ,1,1,0.,24.0,0.,24.0,0.,24.0,0.,24.0
1979-03-07 10:56:53.650 ,5,1,0.,24.0,0.,24.0,0.,24.0,0.,24.0
1979-03-07 10:57:17.650 ,6,1,0.,24.0,0.,24.0,0.,24.0,0.,24.0
1979-03-07 10:57:41.650 ,2,1,0.,24.0,0.,24.0,0.,24.0,0.,24.0
1979-03-07 10:58:05.650 ,1,1,0.,24.0,0.,24.0,0.,24.0,0.,24.0
1979-03-07 10:58:29.650 ,5,1,0.,24.0,0.,24.0,0.,24.0,0.,24.0
1979-03-07 10:58:53.650 ,6,1,0.,24.0,0.,24.0,0.,24.0,0.,24.0
1979-03-07 10:59:17.650 ,2,1,0.,24.0,0.,24.0,0.,24.0,0.,24.0
1979-03-07 10:59:41.650 ,1,1,0.,24.0,0.,24.0,0.,24.0,0.,24.0
1979-03-07 11:00:05.650 ,5,1,0.,24.0,0.,24.0,0.,24.0,0.,24.0
1979-03-07 11:00:29.650 ,6,1,0.,24.0,0.,24.0,0.,24.0,0.,24.0
1979-03-07 11:00:53.650 ,2,1,0.,24.0,0.,24.0,0.,24.0,0.,24.0
1979-03-07 11:01:17.650 ,1,1,0.,24.0,0.,24.0,0.,24.0,0.,24.0
1979-03-07 11:01:41.650 ,5,1,0.,24.0,0.,24.0,0.,24.0,0.,24.0
1979-03-07 11:02:05.650 ,6,1,0.,24.0,0.,24.0,0.,24.0,0.,24.0
1979-03-07 11:02:29.650 ,2,1,0.,24.0,0.,24.0,0.,24.0,0.,24.0
1979-03-07 11:02:53.650 ,1,1,0.,24.0,0.,24.0,0.,24.0,0.,24.0
1979-03-07 11:03:17.650 ,5,1,0.,24.0,0.,24.0,0.,24.0,0.,24.0
1979-03-07 11:03:41.650 ,6,1,0.,24.0,0.,24.0,0.,24.0,0.,24.0
1979-03-07 11:04:05.650 ,2,1,0.,24.0,0.,24.0,0.,24.0,0.,24.0
1979-03-07 11:04:29.650 ,1,1,0.,24.0,0.,24.0,0.,24.0,0.,24.0
1979-03-07 11:04:53.650 ,5,1,0.,24.0,0.,24.0,0.,24.0,0.,24.0
1979-03-07 11:05:17.650 ,6,1,0.,24.0,0.,24.0,0.,24.0,0.,24.0
1979-03-07 11:05:41.650 ,2,1,0.,24.0,0.,24.0,0.,24.0,0.,24.0
1979-03-07 11:06:05.650 ,1,1,0.,24.0,0.,24.0,0.,24.0,0.,24.0
1979-03-07 11:06:29.650 ,5,1,0.,24.0,0.,24.0,0.,24.0,0.,24.0
1979-03-07 11:06:53.650 ,6,1,0.,24.0,0.,24.0,0.,24.0,0.,24.0
1979-03-07 11:07:17.650 ,2,1,0.,24.0,0.,24.0,0.,24.0,0.,24.0
1979-03-07 11:07:41.650 ,1,1,0.,24.0,0.,24.0,0.,24.0,0.,24.0
1979-03-07 11:08:05.650 ,5,1,0.,24.0,0.,24.0,0.,24.0,0.,24.0
1979-03-07 11:08:29.650 ,6,1,0.,24.0,0.,24.0,0.,24.0,0.,24.0
1979-03-07 11:08:53.650 ,2,1,0.,24.0,0.,24.0,0.,24.0,0.,24.0
1979-03-07 11:09:17.650 ,1,1,0.,24.0,0.,24.0,0.,24.0,0.,24.0
1979-03-07 11:09:41.650 ,5,1,0.,24.0,0.,24.0,0.,24.0,0.,24.0
1979-03-07 11:10:05.650 ,6,1,0.,24.0,0.,24.0,0.,24.0,0.,24.0
1979-03-07 11:10:29.650 ,2,1,0.,24.0,0.,24.0,0.,24.0,0.,24.0
1979-03-07 11:10:53.650 ,1,1,0.,24.0,0.,24.0,0.,24.0,0.,24.0
1979-03-07 11:11:17.650 ,5,1,0.,24.0,0.,24.0,0.,24.0,0.,24.0
1979-03-07 11:11:41.650 ,6,1,0.,24.0,0.,24.0,0.,24.0,0.,24.0
1979-03-07 11:12:05.650 ,2,1,0.,24.0,0.,24.0,0.,24.0,0.,24.0
1979-03-07 11:12:29.650 ,1,1,0.,24.0,0.,24.0,0.,24.0,0.,24.0
1979-03-07 11:12:53.650 ,5,1,0.,24.0,0.,24.0,0.,24.0,0.,24.0
1979-03-07 11:13:17.650 ,6,1,0.,24.0,0.,24.0,0.,24.0,0.,24.0
1979-03-07 11:13:41.650 ,2,1,0.,24.0,0.,24.0,0.,24.0,0.,24.0
1979-03-07 11:14:05.650 ,1,1,0.,24.0,0.,24.0,0.,24.0,0.,24.0
1979-03-07 11:14:29.650 ,5,1,0.,24.0,0.,24.0,0.,24.0,0.,24.0
1979-03-07 11:14:53.650 ,6,1,0.,24.0,0.,24.0,0.,24.0,0.,24.0
1979-03-07 11:15:17.650 ,2,1,0.,24.0,0.,24.0,0.,24.0,0.,24.0
1979-03-07 11:15:41.650 ,1,1,0.,24.0,0.,24.0,0.,24.0,0.,24.0
1979-03-07 11:16:05.650 ,5,1,0.,24.0,0.,24.0,0.,24.0,0.,24.0
1979-03-07 11:16:29.650 ,6,1,0.,24.0,0.,24.0,0.,24.0,0.,24.0
1979-03-07 11:16:53.650 ,2,1,0.,24.0,0.,24.0,0.,24.0,0.,24.0
1979-03-07 11:17:17.650 ,1,1,0.,24.0,0.,24.0,0.,24.0,0.,24.0
1979-03-07 11:17:41.650 ,5,1,0.,24.0,0.,24.0,0.,24.0,0.,24.0
1979-03-07 11:18:05.650 ,6,1,0.,24.0,0.,24.0,0.,24.0,0.,24.0
1979-03-07 11:18:29.650 ,2,1,0.,24.0,0.,24.0,0.,24.0,0.,24.0
1979-03-07 11:18:53.650 ,1,1,0.,24.0,0.,24.0,0.,24.0,0.,24.0
1979-03-07 11:19:17.650 ,5,1,0.,24.0,0.,24.0,0.,24.0,0.,24.0
1979-03-07 11:19:41.650 ,6,1,0.,24.0,0.,24.0,0.,24.0,0.,24.0
1979-03-07 11:20:05.650 ,2,1,0.,24.0,0.,24.0,0.,24.0,0.,24.0
1979-03-07 11:20:29.650 ,1,1,0.,24.0,0.,24.0,0.,24.0,0.,24.0
1979-03-07 11:20:53.650 ,5,1,0.,24.0,0.,24.0,0.,24.0,0.,24.0
1979-03-07 11:21:17.650 ,6,1,0.,24.0,0.,24.0,0.,24.0,0.,24.0
1979-03-07 11:21:41.650 ,2,1,0.,24.0,0.,24.0,0.,24.0,0.,24.0
1979-03-07 11:22:05.650 ,1,1,0.,24.0,0.,24.0,0.,24.0,0.,24.0
1979-03-07 11:22:29.650 ,5,1,0.,24.0,0.,24.0,0.,24.0,0.,24.0
1979-03-07 11:22:53.650 ,6,1,0.,24.0,0.,24.0,0.,24.0,0.,24.0
1979-03-07 11:23:17.650 ,2,1,0.,24.0,0.,24.0,0.,24.0,0.,24.0
1979-03-07 11:23:41.650 ,1,1,0.,24.0,0.,24.0,0.,24.0,0.,24.0
1979-03-07 11:24:05.650 ,5,1,0.,24.0,0.,24.0,0.,24.0,0.,24.0
1979-03-07 11:24:29.650 ,6,1,0.,24.0,0.,24.0,0.,24.0,0.,24.0
1979-03-07 11:24:53.650 ,2,1,0.,24.0,0.,24.0,0.,24.0,0.,24.0
1979-03-07 11:25:17.650 ,1,1,0.,24.0,0.,24.0,0.,24.0,0.,24.0
1979-03-07 11:25:41.650 ,5,1,0.,24.0,0.,24.0,0.,24.0,0.,24.0
1979-03-07 11:26:05.650 ,6,1,0.,24.0,0.,24.0,0.,24.0,0.,24.0
1979-03-07 11:26:29.650 ,2,1,0.,24.0,0.,24.0,0.,24.0,0.,24.0
1979-03-07 11:26:53.650 ,3,1,,0,,0,,0,,0
1979-03-07 11:27:17.650 ,0,0,0.,24.0,0.,24.0,0.,24.0,0.,24.0
1979-03-07 11:27:41.650 ,6,1,0.,24.0,0.,24.0,0.,24.0,0.,24.0
1979-03-07 11:28:05.650 ,2,1,0.,24.0,0.,24.0,0.,24.0,0.,24.0
1979-03-07 11:28:29.650 ,1,1,0.,24.0,0.,24.0,0.,24.0,0.,24.0
1979-03-07 11:28:53.660 ,5,1,0.,24.0,0.,24.0,0.,24.0,0.,24.0
1979-03-07 11:29:17.660 ,6,1,0.,24.0,0.,24.0,0.,24.0,0.,24.0
1979-03-07 11:29:41.660 ,2,1,0.,24.0,0.,24.0,0.,24.0,0.,24.0
1979-03-07 11:30:05.660 ,1,1,0.,24.0,0.,24.0,0.,24.0,0.,24.0
1979-03-07 11:30:29.660 ,5,1,0.,24.0,0.,24.0,0.,24.0,0.,24.0
1979-03-07 11:30:53.660 ,0,0,,0,,0,,0,,0
1979-03-07 11:30:56.660 ,6,1,0.,24.0,0.,24.0,0.,24.0,0.,24.0
1979-03-07 11:31:17.660 ,2,1,0.,24.0,0.,24.0,0.,24.0,0.,24.0
1979-03-07 11:31:41.660 ,1,1,0.,24.0,0.,24.0,0.,24.0,0.,24.0
1979-03-07 11:32:05.660 ,5,1,0.,24.0,0.,24.0,0.,24.0,0.,24.0
1979-03-07 11:32:29.660 ,6,1,0.,24.0,0.,24.0,0.,24.0,0.,24.0
1979-03-07 11:32:53.660 ,2,1,0.,24.0,0.,24.0,0.,24.0,0.,24.0
1979-03-07 11:33:17.660 ,1,1,0.,24.0,0.,24.0,0.,24.0,0.,24.0
1979-03-07 11:33:41.660 ,5,1,0.,24.0,0.,24.0,0.,24.0,0.,24.0
1979-03-07 11:34:05.660 ,6,1,0.,24.0,0.,24.0,0.,24.0,0.,24.0
1979-03-07 11:34:29.650 ,2,1,0.,24.0,0.,24.0,0.,24.0,0.,24.0
1979-03-07 11:34:53.650 ,1,1,0.,24.0,0.,24.0,0.,24.0,0.,24.0